User: anonymous
Location: Hale Hill Observatory
(39.3806°N, 86.8431°W)
Time: 13:44:54
(UTC-04:00)
Language:

Cosmos 990 Rocket - Orbit

View from above orbital plane
View from above orbital plane
View from above satellite
View from above satellite

Ground track
Ground track

The orbit data is extracted from the following two-line orbital elements,

1 10677U 78019B   14260.44353038  .00000227  00000-0  81024-4 0  5007
2 10677 074.0408 355.5779 0016358 314.8534 045.1291 14.39679664918025
Epoch (UTC): 17 September 2014 10:38:41
Eccentricity: 0.0016358
inclination: 74.0408°
perigee height: 748 km
apogee height: 771 km
right ascension of ascending node: 355.5779°
argument of perigee: 314.8534°
revolutions per day: 14.39679664
mean anomaly at epoch: 45.1291°
orbit number at epoch: 91802

The dashed part of the orbit path shows where the satellite is in the earth's shadow,  

DLR